Time,TemperatureF,DewpointF,PressureIn,WindDirection,WindDirectionDegrees,WindSpeedMPH,WindSpeedGustMPH,Humidity,HourlyPrecipIn,Conditions,Clouds,dailyrainin,SoftwareType,DateUTC
2013-02-24 00:02:00,38.1,33.9,-100.00,NW,312,0.0,3.1,84,0.00,,,0.00,WSDL version 423,2013-02-24 05:02:00,
2013-02-24 00:05:00,38.0,33.8,-100.00,WNW,283,0.8,3.1,84,0.00,,,0.00,WSDL version 423,2013-02-24 05:05:00,
2013-02-24 00:11:00,38.1,33.6,-100.00,SE,145,0.0,2.5,84,0.00,,,0.00,WSDL version 423,2013-02-24 05:11:00,
2013-02-24 00:17:00,38.1,33.9,-100.00,WSW,248,0.3,2.5,84,0.00,,,0.00,WSDL version 423,2013-02-24 05:17:00,
2013-02-24 00:23:00,38.0,33.8,-100.00,WSW,248,0.0,3.1,84,0.00,,,0.00,WSDL version 423,2013-02-24 05:23:00,
2013-02-24 00:29:00,38.0,33.8,-100.00,WNW,301,0.4,4.9,84,0.00,,,0.00,WSDL version 423,2013-02-24 05:29:00,
2013-02-24 00:35:00,38.0,33.7,-100.00,NNE,26,0.0,4.9,84,0.00,,,0.00,WSDL version 423,2013-02-24 05:35:00,
2013-02-24 00:41:00,38.1,33.9,-100.00,ESE,103,0.0,2.2,84,0.00,,,0.00,WSDL version 423,2013-02-24 05:41:00,
2013-02-24 00:47:00,38.1,34.0,-100.00,SE,146,1.6,3.8,86,0.00,,,0.00,WSDL version 423,2013-02-24 05:47:00,
2013-02-24 00:53:00,38.1,34.0,-100.00,SSE,165,0.0,3.8,84,0.00,,,0.00,WSDL version 423,2013-02-24 05:53:00,
2013-02-24 00:59:00,38.1,34.1,-100.00,SSW,197,0.0,2.5,86,0.00,,,0.00,WSDL version 423,2013-02-24 05:59:00,
2013-02-24 01:05:00,38.1,34.2,-100.00,SE,146,0.3,2.5,86,0.00,,,0.00,WSDL version 423,2013-02-24 06:05:00,
2013-02-24 01:08:00,38.1,34.2,-100.00,South,180,0.0,2.5,86,0.00,,,0.00,WSDL version 423,2013-02-24 06:08:00,
2013-02-24 01:14:00,38.1,33.9,-100.00,SE,129,0.8,2.7,86,0.00,,,0.00,WSDL version 423,2013-02-24 06:14:00,
2013-02-24 01:20:00,38.0,34.0,-100.00,South,177,0.2,2.7,86,0.00,,,0.00,WSDL version 423,2013-02-24 06:20:00,
2013-02-24 01:26:00,38.1,33.9,-100.00,SSE,155,0.0,1.6,84,0.00,,,0.00,WSDL version 423,2013-02-24 06:26:00,
2013-02-24 01:32:00,38.1,34.0,-100.00,SSE,161,0.0,0.0,84,0.00,,,0.00,WSDL version 423,2013-02-24 06:32:00,
2013-02-24 01:38:00,38.1,33.9,-100.00,East,101,0.0,0.0,84,0.00,,,0.00,WSDL version 423,2013-02-24 06:38:00,
2013-02-24 01:44:00,38.1,34.2,-100.00,SE,133,0.0,0.0,86,0.00,,,0.00,WSDL version 423,2013-02-24 06:44:00,
2013-02-24 01:50:00,38.1,34.0,-100.00,SSE,148,0.0,0.0,84,0.00,,,0.00,WSDL version 423,2013-02-24 06:50:00,
2013-02-24 01:56:00,38.1,33.9,-100.00,South,180,0.0,0.0,84,0.00,,,0.00,WSDL version 423,2013-02-24 06:56:00,
2013-02-24 02:02:00,38.1,33.9,-100.00,ESE,116,0.0,0.0,84,0.00,,,0.00,WSDL version 423,2013-02-24 07:02:00,
2013-02-24 02:08:00,38.1,33.9,-100.00,West,263,0.0,0.0,84,0.00,,,0.00,WSDL version 423,2013-02-24 07:08:00,
2013-02-24 02:14:00,38.1,33.9,-100.00,SW,215,0.0,2.0,84,0.00,,,0.00,WSDL version 423,2013-02-24 07:14:00,
2013-02-24 02:20:00,38.1,33.9,-100.00,SSE,148,0.0,2.0,84,0.00,,,0.00,WSDL version 423,2013-02-24 07:20:00,
2013-02-24 02:26:00,38.1,33.9,-100.00,SE,135,0.2,1.6,84,0.00,,,0.00,WSDL version 423,2013-02-24 07:26:00,
2013-02-24 02:32:00,38.1,33.9,-100.00,South,190,0.0,1.6,84,-99.99,,,-99.99,WSDL version 423,2013-02-24 07:32:00,
2013-02-24 02:38:00,38.3,34.0,-100.00,SSW,211,0.0,1.1,84,0.00,,,0.00,WSDL version 423,2013-02-24 07:38:00,
2013-02-24 02:44:00,38.3,34.1,-100.00,ENE,62,0.0,2.7,85,0.00,,,0.00,WSDL version 423,2013-02-24 07:44:00,
2013-02-24 02:50:00,38.3,34.4,-100.00,ESE,123,1.0,3.1,86,0.00,,,0.00,WSDL version 423,2013-02-24 07:50:00,
2013-02-24 02:56:00,38.3,34.4,-100.00,ESE,123,0.2,3.1,86,0.00,,,0.00,WSDL version 423,2013-02-24 07:56:00,
2013-02-24 03:02:00,38.3,34.4,-100.00,ESE,113,0.5,3.8,86,0.00,,,0.00,WSDL version 423,2013-02-24 08:02:00,
2013-02-24 03:08:00,38.1,34.2,-100.00,ESE,118,1.1,4.0,86,0.00,,,0.00,WSDL version 423,2013-02-24 08:08:00,
2013-02-24 03:14:00,38.1,34.2,-100.00,SSE,149,0.0,2.9,86,0.00,,,0.00,WSDL version 423,2013-02-24 08:14:00,
2013-02-24 03:20:00,38.1,34.2,-100.00,SSE,148,0.3,2.7,86,0.00,,,0.00,WSDL version 423,2013-02-24 08:20:00,
2013-02-24 03:26:00,38.1,34.1,-100.00,SE,129,0.3,2.9,86,0.00,,,0.00,WSDL version 423,2013-02-24 08:26:00,
2013-02-24 03:32:00,38.0,34.0,-100.00,ESE,116,0.4,2.5,86,0.00,,,0.00,WSDL version 423,2013-02-24 08:32:00,
2013-02-24 03:38:00,37.9,34.2,-100.00,SSE,155,0.0,2.5,87,0.00,,,0.00,WSDL version 423,2013-02-24 08:38:00,
2013-02-24 03:44:00,37.9,34.1,-100.00,SE,132,1.3,2.9,86,0.00,,,0.00,WSDL version 423,2013-02-24 08:44:00,
2013-02-24 03:50:00,37.9,34.2,-100.00,South,174,0.3,2.9,86,0.00,,,0.00,WSDL version 423,2013-02-24 08:50:00,
2013-02-24 03:56:00,37.8,33.9,-100.00,SE,138,0.0,1.6,86,0.00,,,0.00,WSDL version 423,2013-02-24 08:56:00,
2013-02-24 04:02:00,37.6,33.7,-100.00,WSW,251,0.4,2.7,86,0.00,,,0.00,WSDL version 423,2013-02-24 09:02:00,
2013-02-24 04:08:00,37.4,33.3,-100.00,SSE,166,0.2,2.7,85,0.00,,,0.00,WSDL version 423,2013-02-24 09:08:00,
2013-02-24 04:14:00,37.1,32.9,-100.00,South,180,0.0,1.6,84,0.00,,,0.00,WSDL version 423,2013-02-24 09:14:00,
2013-02-24 04:20:00,36.9,32.6,-100.00,South,191,0.0,0.0,84,0.00,,,0.00,WSDL version 423,2013-02-24 09:20:00,
2013-02-24 04:26:00,36.7,32.4,-100.00,West,270,0.0,0.0,84,0.00,,,0.00,WSDL version 423,2013-02-24 09:26:00,
2013-02-24 04:32:00,36.7,32.4,-100.00,ESE,113,0.0,0.0,84,0.00,,,0.00,WSDL version 423,2013-02-24 09:32:00,
2013-02-24 04:38:00,36.7,32.4,-100.00,ESE,113,0.0,0.0,84,0.00,,,0.00,WSDL version 423,2013-02-24 09:38:00,
2013-02-24 04:44:00,36.7,32.4,-100.00,ESE,119,0.0,0.0,84,0.00,,,0.00,WSDL version 423,2013-02-24 09:44:00,
2013-02-24 04:50:00,36.7,32.4,-100.00,SSE,148,0.0,0.0,84,0.00,,,0.00,WSDL version 423,2013-02-24 09:50:00,
2013-02-24 04:56:00,36.7,32.5,-100.00,SE,135,0.0,2.2,84,0.00,,,0.00,WSDL version 423,2013-02-24 09:56:00,
2013-02-24 05:02:00,36.9,32.6,-100.00,South,177,0.0,2.2,84,0.00,,,0.00,WSDL version 423,2013-02-24 10:02:00,
2013-02-24 05:08:00,36.7,32.4,-100.00,SSE,158,0.0,1.3,84,0.00,,,0.00,WSDL version 423,2013-02-24 10:08:00,
2013-02-24 05:14:00,36.9,32.9,-100.00,ESE,115,0.0,0.0,86,0.00,,,0.00,WSDL version 423,2013-02-24 10:14:00,
2013-02-24 05:20:00,36.9,33.0,-100.00,SE,135,0.0,2.5,86,0.00,,,0.00,WSDL version 423,2013-02-24 10:20:00,
2013-02-24 05:26:00,37.0,33.1,-100.00,SSE,158,0.0,2.5,86,0.00,,,0.00,WSDL version 423,2013-02-24 10:26:00,
2013-02-24 05:32:00,37.0,33.1,-100.00,NNW,345,0.0,0.0,86,0.00,,,0.00,WSDL version 423,2013-02-24 10:32:00,
2013-02-24 05:38:00,37.1,33.2,-100.00,ESE,118,0.0,0.0,86,0.00,,,0.00,WSDL version 423,2013-02-24 10:38:00,
2013-02-24 05:44:00,37.3,33.4,-100.00,ESE,106,0.0,0.0,86,0.00,,,0.00,WSDL version 423,2013-02-24 10:44:00,
2013-02-24 05:50:00,37.4,33.5,-100.00,SE,135,0.0,2.2,86,0.00,,,0.00,WSDL version 423,2013-02-24 10:50:00,
2013-02-24 05:56:00,37.4,33.5,-100.00,SE,135,0.4,2.5,86,0.00,,,0.00,WSDL version 423,2013-02-24 10:56:00,
2013-02-24 06:02:00,37.3,33.5,-100.00,SE,140,0.7,2.5,87,0.00,,,0.00,WSDL version 423,2013-02-24 11:02:00,
2013-02-24 06:08:00,37.2,33.6,-100.00,SE,141,0.7,3.1,87,0.00,,,0.00,WSDL version 423,2013-02-24 11:08:00,
2013-02-24 06:14:00,37.0,33.3,-100.00,SE,124,0.0,3.1,86,0.00,,,0.00,WSDL version 423,2013-02-24 11:14:00,
2013-02-24 06:20:00,37.0,33.2,-100.00,SE,129,0.7,4.3,87,0.00,,,0.00,WSDL version 423,2013-02-24 11:20:00,
2013-02-24 06:26:00,37.2,33.6,-100.00,SE,125,2.3,4.9,87,0.00,,,0.00,WSDL version 423,2013-02-24 11:26:00,
2013-02-24 06:32:00,37.2,33.6,-100.00,ESE,122,2.9,5.4,87,0.00,,,0.00,WSDL version 423,2013-02-24 11:32:00,
2013-02-24 06:38:00,37.2,33.6,-100.00,ESE,113,2.5,5.4,87,0.00,,,0.00,WSDL version 423,2013-02-24 11:38:00,
2013-02-24 06:44:00,37.2,33.9,-100.00,SSE,151,2.0,5.6,88,0.00,,,0.00,WSDL version 423,2013-02-24 11:44:00,
2013-02-24 06:50:00,37.1,33.8,-100.00,SSE,161,1.6,5.8,88,0.00,,,0.00,WSDL version 423,2013-02-24 11:50:00,
2013-02-24 06:56:00,37.0,33.5,-100.00,SE,125,1.1,5.8,87,0.00,,,0.00,WSDL version 423,2013-02-24 11:56:00,
2013-02-24 07:02:00,37.2,33.9,-100.00,ESE,116,2.2,5.8,88,0.00,,,0.00,WSDL version 423,2013-02-24 12:02:00,
2013-02-24 07:08:00,37.2,33.9,-100.00,SE,135,2.7,7.8,88,0.00,,,0.00,WSDL version 423,2013-02-24 12:08:00,
2013-02-24 07:14:00,37.3,33.8,-100.00,ESE,113,1.6,7.8,87,0.00,,,0.00,WSDL version 423,2013-02-24 12:14:00,
2013-02-24 07:20:00,37.4,33.8,-100.00,SE,131,2.0,5.4,87,0.00,,,0.00,WSDL version 423,2013-02-24 12:20:00,
2013-02-24 07:27:00,37.4,33.8,-100.00,SSE,153,1.8,4.0,87,0.00,,,0.00,WSDL version 423,2013-02-24 12:27:00,
2013-02-24 07:33:00,37.5,33.5,-100.00,SE,125,1.4,3.8,86,0.00,,,0.00,WSDL version 423,2013-02-24 12:33:00,
2013-02-24 07:39:00,37.6,33.7,-100.00,SSE,152,1.8,3.8,86,0.00,,,0.00,WSDL version 423,2013-02-24 12:39:00,
2013-02-24 07:45:00,37.9,33.9,-100.00,SE,138,1.3,3.1,86,0.00,,,0.00,WSDL version 423,2013-02-24 12:45:00,
2013-02-24 07:51:00,38.3,34.4,-100.00,SE,135,1.1,3.8,86,0.00,,,0.00,WSDL version 423,2013-02-24 12:51:00,
2013-02-24 07:57:00,38.6,34.5,-100.00,SE,135,2.8,4.0,84,0.00,,,0.00,WSDL version 423,2013-02-24 12:57:00,
2013-02-24 08:03:00,38.5,34.2,-100.00,ESE,109,2.2,4.0,83,0.00,,,0.00,WSDL version 423,2013-02-24 13:03:00,
2013-02-24 08:09:00,38.5,33.9,-100.00,SE,146,2.1,3.8,83,0.00,,,0.00,WSDL version 423,2013-02-24 13:09:00,
2013-02-24 08:15:00,38.8,34.2,-100.00,East,90,2.7,3.6,83,0.00,,,0.00,WSDL version 423,2013-02-24 13:15:00,
2013-02-24 08:21:00,39.0,34.3,-100.00,ESE,118,2.5,5.4,82,0.00,,,0.00,WSDL version 423,2013-02-24 13:21:00,
2013-02-24 08:27:00,39.3,34.4,-100.00,ESE,115,0.0,5.4,82,0.00,,,0.00,WSDL version 423,2013-02-24 13:27:00,
2013-02-24 08:33:00,39.7,34.7,-100.00,SSE,152,0.7,3.6,82,0.00,,,0.00,WSDL version 423,2013-02-24 13:33:00,
2013-02-24 08:39:00,39.8,34.7,-100.00,SSE,149,2.8,4.9,81,0.00,,,0.00,WSDL version 423,2013-02-24 13:39:00,
2013-02-24 08:45:00,40.2,34.8,-100.00,SE,138,3.6,5.6,81,0.00,,,0.00,WSDL version 423,2013-02-24 13:45:00,
2013-02-24 08:51:00,40.6,35.2,-100.00,SE,135,1.7,5.6,80,0.00,,,0.00,WSDL version 423,2013-02-24 13:51:00,
2013-02-24 08:57:00,40.6,35.0,-100.00,East,96,3.0,6.0,80,0.00,,,0.00,WSDL version 423,2013-02-24 13:57:00,
2013-02-24 09:03:00,40.8,35.0,-100.00,SE,135,3.1,6.0,79,0.00,,,0.00,WSDL version 423,2013-02-24 14:03:00,
2013-02-24 09:09:00,41.2,34.9,-100.00,SE,138,3.3,7.4,78,0.00,,,0.00,WSDL version 423,2013-02-24 14:09:00,
2013-02-24 09:15:00,41.3,34.6,-100.00,East,98,1.3,8.9,77,0.00,,,0.00,WSDL version 423,2013-02-24 14:15:00,
2013-02-24 09:21:00,41.5,34.6,-100.00,ESE,104,4.3,8.5,76,0.00,,,0.00,WSDL version 423,2013-02-24 14:21:00,
2013-02-24 09:27:00,41.8,34.9,-100.00,SE,130,3.9,8.7,76,0.00,,,0.00,WSDL version 423,2013-02-24 14:27:00,
2013-02-24 09:33:00,42.5,35.5,-100.00,SE,128,3.2,8.7,76,0.00,,,0.00,WSDL version 423,2013-02-24 14:33:00,
2013-02-24 09:39:00,42.8,35.4,-100.00,East,100,3.8,7.8,74,0.00,,,0.00,WSDL version 423,2013-02-24 14:39:00,
2013-02-24 09:45:00,43.1,35.2,-100.00,ENE,70,4.6,8.5,73,0.00,,,0.00,WSDL version 423,2013-02-24 14:45:00,
2013-02-24 09:51:00,43.6,35.7,-100.00,SSE,148,4.0,8.5,73,0.00,,,0.00,WSDL version 423,2013-02-24 14:51:00,
2013-02-24 09:57:00,43.7,35.2,-100.00,SSE,155,1.6,8.5,72,0.00,,,0.00,WSDL version 423,2013-02-24 14:57:00,
2013-02-24 10:03:00,43.9,35.3,-100.00,SSE,151,2.8,8.5,72,0.00,,,0.00,WSDL version 423,2013-02-24 15:03:00,
2013-02-24 10:09:00,44.3,35.2,-100.00,SE,127,2.9,7.6,70,0.00,,,0.00,WSDL version 423,2013-02-24 15:09:00,
2013-02-24 10:15:00,44.6,35.3,-100.00,East,100,5.7,13.2,68,0.00,,,0.00,WSDL version 423,2013-02-24 15:15:00,
2013-02-24 10:21:00,44.7,34.8,-100.00,ESE,119,2.9,13.2,68,0.00,,,0.00,WSDL version 423,2013-02-24 15:21:00,
2013-02-24 10:27:00,44.9,34.7,-100.00,ESE,110,3.6,8.1,68,0.00,,,0.00,WSDL version 423,2013-02-24 15:27:00,
2013-02-24 10:33:00,45.3,35.3,-100.00,SE,146,2.8,10.7,68,0.00,,,0.00,WSDL version 423,2013-02-24 15:33:00,
2013-02-24 10:39:00,45.4,34.6,-100.00,ENE,65,3.4,10.7,65,0.00,,,0.00,WSDL version 423,2013-02-24 15:39:00,
2013-02-24 10:45:00,45.7,34.3,-100.00,SE,131,2.7,8.5,64,0.00,,,0.00,WSDL version 423,2013-02-24 15:45:00,
2013-02-24 10:51:00,46.0,34.3,-100.00,SE,138,3.4,7.8,65,0.00,,,0.00,WSDL version 423,2013-02-24 15:51:00,
2013-02-24 10:57:00,46.2,34.6,-100.00,South,185,3.8,8.7,63,0.00,,,0.00,WSDL version 423,2013-02-24 15:57:00,
2013-02-24 11:03:00,46.5,33.9,-100.00,SSE,151,3.6,8.7,60,0.00,,,0.00,WSDL version 423,2013-02-24 16:03:00,
2013-02-24 11:09:00,46.3,33.2,-100.00,SE,143,4.3,7.4,60,0.00,,,0.00,WSDL version 423,2013-02-24 16:09:00,
2013-02-24 11:15:00,46.6,33.3,-100.00,ESE,115,4.4,8.9,59,0.00,,,0.00,WSDL version 423,2013-02-24 16:15:00,
2013-02-24 11:21:00,46.6,32.1,-100.00,ESE,103,4.5,10.1,55,0.00,,,0.00,WSDL version 423,2013-02-24 16:21:00,
2013-02-24 11:27:00,46.5,32.2,-100.00,South,174,1.8,10.1,59,0.00,,,0.00,WSDL version 423,2013-02-24 16:27:00,
2013-02-24 11:33:00,46.5,31.7,-100.00,SE,138,4.2,8.5,57,0.00,,,0.00,WSDL version 423,2013-02-24 16:33:00,
2013-02-24 11:39:00,47.3,31.9,-100.00,ESE,116,5.8,8.7,53,0.00,,,0.00,WSDL version 423,2013-02-24 16:39:00,
2013-02-24 11:45:00,48.3,32.2,-100.00,ESE,115,5.5,8.7,53,-99.99,,,-99.99,WSDL version 423,2013-02-24 16:45:00,
2013-02-24 11:51:00,48.4,31.5,-100.00,SSE,168,2.2,8.7,53,0.00,,,0.00,WSDL version 423,2013-02-24 16:51:00,
2013-02-24 11:57:00,47.9,30.5,-100.00,SSE,161,2.6,6.5,51,-99.99,,,-99.99,WSDL version 423,2013-02-24 16:57:00,
2013-02-24 12:03:00,48.4,30.7,-100.00,ESE,109,2.3,6.5,51,-99.99,,,-99.99,WSDL version 423,2013-02-24 17:03:00,
2013-02-24 12:09:00,48.4,30.3,-100.00,SW,214,2.6,7.2,49,0.00,,,0.00,WSDL version 423,2013-02-24 17:09:00,
2013-02-24 12:15:00,48.3,30.3,-100.00,SSE,148,1.9,7.6,50,0.00,,,0.00,WSDL version 423,2013-02-24 17:15:00,
2013-02-24 12:21:00,48.7,29.8,-100.00,SE,135,5.2,11.9,47,0.00,,,0.00,WSDL version 423,2013-02-24 17:21:00,
2013-02-24 12:27:00,48.9,29.6,-100.00,ESE,108,3.9,11.9,47,0.00,,,0.00,WSDL version 423,2013-02-24 17:27:00,
2013-02-24 12:33:00,49.2,30.8,-100.00,SSE,163,3.1,8.7,48,0.00,,,0.00,WSDL version 423,2013-02-24 17:33:00,
2013-02-24 12:39:00,49.3,29.9,-100.00,SE,140,3.9,6.9,47,0.00,,,0.00,WSDL version 423,2013-02-24 17:39:00,
2013-02-24 12:45:00,48.8,29.0,-100.00,SSE,151,4.2,8.7,46,0.00,,,0.00,WSDL version 423,2013-02-24 17:45:00,
2013-02-24 12:51:00,48.7,29.0,-100.00,ESE,121,5.5,8.1,46,0.00,,,0.00,WSDL version 423,2013-02-24 17:51:00,
2013-02-24 12:57:00,48.5,29.0,-100.00,ESE,120,3.6,10.5,47,0.00,,,0.00,WSDL version 423,2013-02-24 17:57:00,
2013-02-24 13:03:00,48.4,28.0,-100.00,ESE,118,6.6,11.4,46,0.00,,,0.00,WSDL version 423,2013-02-24 18:03:00,
2013-02-24 13:09:00,48.6,28.3,-100.00,SE,129,4.3,11.4,46,0.00,,,0.00,WSDL version 423,2013-02-24 18:09:00,
2013-02-24 13:15:00,48.7,27.9,-100.00,SE,141,4.3,14.5,45,0.00,,,0.00,WSDL version 423,2013-02-24 18:15:00,
2013-02-24 13:21:00,48.9,28.9,-100.00,ESE,103,3.2,14.5,47,0.00,,,0.00,WSDL version 423,2013-02-24 18:21:00,
2013-02-24 13:27:00,49.0,28.9,-100.00,ESE,113,3.7,10.1,45,0.00,,,0.00,WSDL version 423,2013-02-24 18:27:00,
2013-02-24 13:33:00,48.7,27.7,-100.00,SSE,148,4.1,8.5,43,0.00,,,0.00,WSDL version 423,2013-02-24 18:33:00,
2013-02-24 13:39:00,48.5,27.3,-100.00,SE,132,5.5,8.7,44,0.00,,,0.00,WSDL version 423,2013-02-24 18:39:00,
2013-02-24 13:45:00,48.1,26.8,-100.00,ESE,115,3.5,9.8,44,0.00,,,0.00,WSDL version 423,2013-02-24 18:45:00,
2013-02-24 13:51:00,48.1,27.0,-100.00,SE,138,6.0,11.0,43,0.00,,,0.00,WSDL version 423,2013-02-24 18:51:00,
2013-02-24 13:57:00,48.1,26.6,-100.00,East,98,5.5,11.0,42,0.00,,,0.00,WSDL version 423,2013-02-24 18:57:00,
2013-02-24 14:03:00,47.7,26.1,-100.00,ESE,123,4.6,15.2,44,0.00,,,0.00,WSDL version 423,2013-02-24 19:03:00,
2013-02-24 14:09:00,47.3,25.6,-100.00,SSE,152,5.1,12.1,43,0.00,,,0.00,WSDL version 423,2013-02-24 19:09:00,
2013-02-24 14:15:00,47.4,25.8,-100.00,ESE,113,6.7,12.1,42,0.00,,,0.00,WSDL version 423,2013-02-24 19:15:00,
2013-02-24 14:21:00,46.7,24.3,-100.00,SE,127,6.2,12.8,41,0.00,,,0.00,WSDL version 423,2013-02-24 19:21:00,
2013-02-24 14:27:00,46.2,24.8,-100.00,ESE,113,5.1,13.6,43,0.00,,,0.00,WSDL version 423,2013-02-24 19:27:00,
2013-02-24 14:33:00,46.2,25.0,-100.00,SE,141,5.7,13.6,43,0.00,,,0.00,WSDL version 423,2013-02-24 19:33:00,
2013-02-24 14:39:00,46.3,25.3,-100.00,SE,135,5.1,11.4,43,0.00,,,0.00,WSDL version 423,2013-02-24 19:39:00,
2013-02-24 14:45:00,46.3,25.0,-100.00,East,96,2.7,10.5,43,0.00,,,0.00,WSDL version 423,2013-02-24 19:45:00,
2013-02-24 14:51:00,46.4,25.2,-100.00,SE,138,3.6,10.1,43,0.00,,,0.00,WSDL version 423,2013-02-24 19:51:00,
2013-02-24 14:57:00,46.5,25.2,-100.00,SE,135,4.7,13.6,42,0.00,,,0.00,WSDL version 423,2013-02-24 19:57:00,
2013-02-24 15:03:00,46.3,25.4,-100.00,SE,129,4.2,13.6,44,0.00,,,0.00,WSDL version 423,2013-02-24 20:03:00,
2013-02-24 15:09:00,46.1,25.4,-100.00,SE,139,4.7,12.8,44,0.00,,,0.00,WSDL version 423,2013-02-24 20:09:00,
2013-02-24 15:15:00,45.8,25.0,-100.00,East,96,4.8,10.5,44,0.00,,,0.00,WSDL version 423,2013-02-24 20:15:00,
2013-02-24 15:21:00,45.4,24.9,-100.00,ESE,103,5.4,10.5,44,0.00,,,0.00,WSDL version 423,2013-02-24 20:21:00,
2013-02-24 15:27:00,45.1,24.7,-100.00,ESE,119,6.2,10.3,45,0.00,,,0.00,WSDL version 423,2013-02-24 20:27:00,
2013-02-24 15:33:00,44.7,24.7,-100.00,SE,129,5.1,10.7,45,0.00,,,0.00,WSDL version 423,2013-02-24 20:33:00,
2013-02-24 15:39:00,44.3,25.0,-100.00,SE,146,3.9,10.7,47,0.00,,,0.00,WSDL version 423,2013-02-24 20:39:00,
2013-02-24 15:45:00,44.0,25.3,-100.00,SE,127,4.7,8.7,48,0.00,,,0.00,WSDL version 423,2013-02-24 20:45:00,
2013-02-24 15:51:00,43.8,25.4,-100.00,ESE,120,5.2,10.7,48,0.00,,,0.00,WSDL version 423,2013-02-24 20:51:00,
2013-02-24 15:57:00,43.4,25.0,-100.00,SE,131,4.7,12.3,48,0.00,,,0.00,WSDL version 423,2013-02-24 20:57:00,
2013-02-24 16:03:00,43.3,25.5,-100.00,SE,146,4.6,8.1,49,0.00,,,0.00,WSDL version 423,2013-02-24 21:03:00,
2013-02-24 16:09:00,43.0,25.2,-100.00,SE,125,4.5,9.6,49,0.00,,,0.00,WSDL version 423,2013-02-24 21:09:00,
2013-02-24 16:15:00,43.0,25.3,-100.00,SE,138,2.7,8.5,50,0.00,,,0.00,WSDL version 423,2013-02-24 21:15:00,
2013-02-24 16:21:00,42.8,25.5,-100.00,SE,132,3.4,8.7,50,0.00,,,0.00,WSDL version 423,2013-02-24 21:21:00,
2013-02-24 16:27:00,42.2,25.0,-100.00,SSE,150,5.1,12.8,51,0.00,,,0.00,WSDL version 423,2013-02-24 21:27:00,
2013-02-24 16:33:00,-999.0,-99.9,-100.00,ESE,103,6.1,13.2,-999,0.00,,,0.00,WSDL version 423,2013-02-24 21:33:00,
2013-02-24 16:39:00,-999.0,-99.9,-100.00,SE,146,4.3,13.2,-999,0.00,,,0.00,WSDL version 423,2013-02-24 21:39:00,
2013-02-24 16:45:00,40.5,24.2,-100.00,SE,129,7.1,12.3,52,0.00,,,0.00,WSDL version 423,2013-02-24 21:45:00,
2013-02-24 16:51:00,40.2,24.1,-100.00,SE,140,6.5,12.3,53,0.00,,,0.00,WSDL version 423,2013-02-24 21:51:00,
2013-02-24 16:57:00,39.7,23.6,-100.00,ESE,115,6.9,14.5,52,0.00,,,0.00,WSDL version 423,2013-02-24 21:57:00,
2013-02-24 17:03:00,39.5,23.2,-100.00,SE,135,5.6,14.5,51,0.00,,,0.00,WSDL version 423,2013-02-24 22:03:00,
2013-02-24 17:09:00,-999.0,-99.9,-100.00,SE,133,7.3,17.2,-999,0.00,,,0.00,WSDL version 423,2013-02-24 22:09:00,
2013-02-24 17:15:00,39.2,21.2,-100.00,SE,135,6.9,17.2,48,0.00,,,0.00,WSDL version 423,2013-02-24 22:15:00,
2013-02-24 17:21:00,39.0,21.0,-100.00,SE,135,6.3,17.2,48,0.00,,,0.00,WSDL version 423,2013-02-24 22:21:00,
2013-02-24 17:27:00,-999.0,-99.9,-100.00,SE,140,5.4,11.0,-999,0.00,,,0.00,WSDL version 423,2013-02-24 22:27:00,
2013-02-24 17:33:00,-999.0,-99.9,-100.00,South,169,3.5,11.0,-999,0.00,,,0.00,WSDL version 423,2013-02-24 22:33:00,
2013-02-24 17:39:00,-999.0,-99.9,-100.00,SE,127,5.9,8.7,-999,0.00,,,0.00,WSDL version 423,2013-02-24 22:39:00,
2013-02-24 17:45:00,-999.0,-99.9,-100.00,SE,129,4.9,10.5,-999,0.00,,,0.00,WSDL version 423,2013-02-24 22:45:00,
2013-02-24 17:51:00,38.3,20.8,-100.00,ESE,115,3.0,10.1,49,0.00,,,0.00,WSDL version 423,2013-02-24 22:51:00,
2013-02-24 17:57:00,-999.0,-99.9,-100.00,SE,140,3.2,7.6,-999,0.00,,,0.00,WSDL version 423,2013-02-24 22:57:00,
2013-02-24 18:03:00,38.3,20.5,-100.00,ESE,116,5.0,10.1,48,0.00,,,0.00,WSDL version 423,2013-02-24 23:03:00,
2013-02-24 18:09:00,38.1,20.2,-100.00,SE,133,4.0,10.1,48,0.00,,,0.00,WSDL version 423,2013-02-24 23:09:00,
2013-02-24 18:15:00,38.0,19.3,-100.00,SE,145,3.9,6.7,46,0.00,,,0.00,WSDL version 423,2013-02-24 23:15:00,
2013-02-24 18:21:00,37.6,18.2,-100.00,ESE,122,3.5,8.7,45,0.00,,,0.00,WSDL version 423,2013-02-24 23:21:00,
2013-02-24 18:27:00,37.5,18.0,-100.00,ESE,118,5.1,12.5,45,0.00,,,0.00,WSDL version 423,2013-02-24 23:27:00,
2013-02-24 18:33:00,37.3,18.1,-100.00,SSE,165,3.6,11.0,46,0.00,,,0.00,WSDL version 423,2013-02-24 23:33:00,
2013-02-24 18:39:00,37.1,18.3,-100.00,ESE,118,3.0,8.7,47,0.00,,,0.00,WSDL version 423,2013-02-24 23:39:00,
2013-02-24 18:45:00,37.0,18.3,-100.00,ESE,118,4.2,7.6,46,0.00,,,0.00,WSDL version 423,2013-02-24 23:45:00,
2013-02-24 18:51:00,36.9,18.5,-100.00,SE,143,4.3,7.6,47,0.00,,,0.00,WSDL version 423,2013-02-24 23:51:00,
2013-02-24 18:57:00,36.8,18.5,-100.00,ESE,115,2.7,7.4,47,0.00,,,0.00,WSDL version 423,2013-02-24 23:57:00,
2013-02-24 19:03:00,36.6,18.7,-100.00,SE,132,2.5,5.8,48,0.00,,,0.00,WSDL version 423,2013-02-25 00:03:00,
2013-02-24 19:09:00,36.5,18.7,-100.00,SSE,152,2.4,5.6,49,0.00,,,0.00,WSDL version 423,2013-02-25 00:09:00,
2013-02-24 19:15:00,36.3,19.0,-100.00,SE,128,3.4,8.9,49,0.00,,,0.00,WSDL version 423,2013-02-25 00:15:00,
2013-02-24 19:21:00,36.3,19.0,-100.00,ESE,121,3.7,8.9,49,0.00,,,0.00,WSDL version 423,2013-02-25 00:21:00,
2013-02-24 19:27:00,36.3,19.0,-100.00,ESE,106,4.2,6.7,49,0.00,,,0.00,WSDL version 423,2013-02-25 00:27:00,
2013-02-24 19:33:00,36.3,19.0,-100.00,SE,143,4.8,8.7,49,0.00,,,0.00,WSDL version 423,2013-02-25 00:33:00,
2013-02-24 19:39:00,36.3,19.0,-100.00,ESE,123,5.8,8.7,49,0.00,,,0.00,WSDL version 423,2013-02-25 00:39:00,
2013-02-24 19:45:00,36.2,19.4,-100.00,SE,127,3.9,7.6,50,0.00,,,0.00,WSDL version 423,2013-02-25 00:45:00,
2013-02-24 19:51:00,36.1,19.3,-100.00,ESE,103,4.0,7.8,50,0.00,,,0.00,WSDL version 423,2013-02-25 00:51:00,
2013-02-24 19:57:00,36.0,19.3,-100.00,SE,125,5.1,7.8,51,0.00,,,0.00,WSDL version 423,2013-02-25 00:57:00,
2013-02-24 20:04:00,35.9,19.5,-100.00,ESE,121,4.1,8.1,51,0.00,,,0.00,WSDL version 423,2013-02-25 01:04:00,
2013-02-24 20:09:00,35.8,19.4,-100.00,SE,127,5.7,12.3,51,0.00,,,0.00,WSDL version 423,2013-02-25 01:09:00,
2013-02-24 20:15:00,35.6,19.3,-100.00,SE,132,5.7,12.3,51,0.00,,,0.00,WSDL version 423,2013-02-25 01:15:00,
2013-02-24 20:21:00,35.5,19.2,-100.00,SE,129,4.8,10.1,51,0.00,,,0.00,WSDL version 423,2013-02-25 01:21:00,
2013-02-24 20:27:00,35.4,19.1,-100.00,SE,138,4.3,9.8,52,0.00,,,0.00,WSDL version 423,2013-02-25 01:27:00,
2013-02-24 20:33:00,35.2,19.2,-100.00,ESE,120,6.1,9.8,51,0.00,,,0.00,WSDL version 423,2013-02-25 01:33:00,
2013-02-24 20:39:00,35.2,19.3,-100.00,ESE,108,5.4,15.2,52,0.00,,,0.00,WSDL version 423,2013-02-25 01:39:00,
2013-02-24 20:45:00,35.1,18.8,-100.00,SE,124,6.3,12.5,51,0.00,,,0.00,WSDL version 423,2013-02-25 01:45:00,
2013-02-24 20:51:00,35.0,18.7,-100.00,SE,132,5.7,14.5,51,0.00,,,0.00,WSDL version 423,2013-02-25 01:51:00,
2013-02-24 20:57:00,35.0,18.7,-100.00,SE,127,5.9,14.5,51,0.00,,,0.00,WSDL version 423,2013-02-25 01:57:00,
2013-02-24 21:03:00,34.9,18.6,-100.00,SE,132,5.9,12.5,51,0.00,,,0.00,WSDL version 423,2013-02-25 02:03:00,
2013-02-24 21:09:00,34.9,18.6,-100.00,SE,135,3.6,12.5,51,0.00,,,0.00,WSDL version 423,2013-02-25 02:09:00,
2013-02-24 21:15:00,34.9,18.6,-100.00,ESE,123,6.1,13.4,51,0.00,,,0.00,WSDL version 423,2013-02-25 02:15:00,
2013-02-24 21:21:00,34.7,18.5,-100.00,ESE,115,5.3,13.4,51,0.00,,,0.00,WSDL version 423,2013-02-25 02:21:00,
2013-02-24 21:27:00,34.7,18.4,-100.00,ESE,113,5.3,12.3,51,0.00,,,0.00,WSDL version 423,2013-02-25 02:27:00,
2013-02-24 21:33:00,34.5,18.3,-100.00,SE,124,4.1,10.5,51,0.00,,,0.00,WSDL version 423,2013-02-25 02:33:00,
2013-02-24 21:39:00,34.3,18.1,-100.00,ESE,113,3.8,10.1,51,0.00,,,0.00,WSDL version 423,2013-02-25 02:39:00,
2013-02-24 21:45:00,34.3,18.1,-100.00,SE,143,4.1,10.1,51,0.00,,,0.00,WSDL version 423,2013-02-25 02:45:00,
2013-02-24 21:51:00,34.3,18.1,-100.00,ESE,121,4.5,10.1,51,0.00,,,0.00,WSDL version 423,2013-02-25 02:51:00,
2013-02-24 21:57:00,34.2,18.4,-100.00,SE,133,2.5,10.1,52,0.00,,,0.00,WSDL version 423,2013-02-25 02:57:00,
2013-02-24 22:03:00,34.2,18.3,-100.00,SE,138,2.8,10.3,52,0.00,,,0.00,WSDL version 423,2013-02-25 03:03:00,
2013-02-24 22:09:00,34.0,18.0,-100.00,SE,125,3.4,8.1,52,0.00,,,0.00,WSDL version 423,2013-02-25 03:09:00,
2013-02-24 22:15:00,34.0,18.2,-100.00,SE,124,4.3,8.7,52,0.00,,,0.00,WSDL version 423,2013-02-25 03:15:00,
2013-02-24 22:21:00,33.9,18.2,-100.00,ESE,118,2.6,8.7,52,0.00,,,0.00,WSDL version 423,2013-02-25 03:21:00,
2013-02-24 22:27:00,33.8,18.0,-100.00,East,93,4.8,10.7,52,0.00,,,0.00,WSDL version 423,2013-02-25 03:27:00,
2013-02-24 22:33:00,33.8,18.0,-100.00,SE,129,4.7,10.7,52,0.00,,,0.00,WSDL version 423,2013-02-25 03:33:00,
2013-02-24 22:39:00,33.8,18.0,-100.00,ESE,123,4.2,9.6,52,0.00,,,0.00,WSDL version 423,2013-02-25 03:39:00,
2013-02-24 22:45:00,33.8,17.8,-100.00,SSE,148,3.6,9.6,52,0.00,,,0.00,WSDL version 423,2013-02-25 03:45:00,
2013-02-24 22:51:00,33.6,17.9,-100.00,SE,135,4.4,9.6,52,0.00,,,0.00,WSDL version 423,2013-02-25 03:51:00,
2013-02-24 22:57:00,33.7,17.9,-100.00,SE,135,5.0,8.5,52,0.00,,,0.00,WSDL version 423,2013-02-25 03:57:00,
2013-02-24 23:03:00,33.6,17.9,-100.00,ESE,110,5.5,9.8,52,0.00,,,0.00,WSDL version 423,2013-02-25 04:03:00,
2013-02-24 23:09:00,33.6,17.9,-100.00,ESE,110,4.0,9.8,52,0.00,,,0.00,WSDL version 423,2013-02-25 04:09:00,
2013-02-24 23:16:00,33.6,17.9,-100.00,ESE,115,4.1,14.3,52,0.00,,,0.00,WSDL version 423,2013-02-25 04:16:00,
2013-02-24 23:21:00,33.6,17.9,-100.00,SE,130,3.8,14.3,52,0.00,,,0.00,WSDL version 423,2013-02-25 04:21:00,
2013-02-24 23:27:00,33.4,17.6,-100.00,South,169,1.0,6.7,52,0.00,,,0.00,WSDL version 423,2013-02-25 04:27:00,
2013-02-24 23:33:00,33.2,17.4,-100.00,ESE,121,2.5,4.0,52,0.00,,,0.00,WSDL version 423,2013-02-25 04:33:00,
2013-02-24 23:39:00,33.2,17.5,-100.00,SE,129,3.2,6.5,52,0.00,,,0.00,WSDL version 423,2013-02-25 04:39:00,
2013-02-24 23:45:00,33.3,17.9,-100.00,SE,143,2.6,8.5,53,0.00,,,0.00,WSDL version 423,2013-02-25 04:45:00,
2013-02-24 23:51:00,33.1,17.9,-100.00,SE,124,2.2,9.8,53,0.00,,,0.00,WSDL version 423,2013-02-25 04:51:00,
2013-02-24 23:57:00,33.2,17.9,-100.00,ESE,106,2.9,9.8,53,0.00,,,0.00,WSDL version 423,2013-02-25 04:57:00,